Location: Antioch
(38.0049°N, 121.8058°W)
Time: 06:07:12
(UTC+00:00)

COSMO-SKYMED 1 - Pass Details

Date: 11 February 2026
Orbit: 577 x 578 km, 97.9° (Epoch: 5 March)

Event Time Altitude Azimuth Distance (km) Brightness Sun altitude
Rises 14:08:02 0° 181° (S) 2,780 6.0 -11.1°
Reaches altitude 10° 14:10:15 10° 188° (S) 1,885 5.1 -10.7°
Maximum altitude 14:14:09 44° 261° (W) 808 2.7 -9.9°
Drops below altitude 10° 14:18:06 10° 334° (NNW) 1,899 4.7 -9.1°
Sets 14:20:20 0° 341° (NNW) 2,802 5.6 -8.7°
